Tracking 33877 objects as of 19-Apr-2026
HD Live streaming from Space Station
objects crossing your sky now

STARLINK-5366

Track STARLINK-5366 now!
10-day predictions
STARLINK-5366 is classified as:


NORAD ID: 55499
Int'l Code: 2023-015BC
Perigee: 489.3 km
Apogee: 491.0 km
Inclination: 43.0 °
Period: 94.3 minutes
Semi major axis: 6861 km
RCS: Unknown
Launch date: February 2, 2023
Source: United States (US)
Launch site: AIR FORCE EASTERN TEST RANGE (AFETR)
Your satellite tracking list
Your tracking list is empty




NASA's NSSDC Master Catalog

Two Line Element Set (TLE):
1 55499U 23015BC  26109.06316353 -.00000883  00000-0 -22571-4 0  9990
2 55499  43.0051 111.3880 0001271 274.4275  85.6431 15.27590375177524
Source of the keplerian elements: AFSPC